Year,Month,Day,Hour,Minute,Value (Times are PST for temperature in C)
2010,08,24,00,00,12.60
2010,08,24,00,01,12.60
2010,08,24,00,02,12.60
2010,08,24,00,03,12.50
2010,08,24,00,04,12.50
2010,08,24,00,05,12.50
2010,08,24,00,06,12.40
2010,08,24,00,07,12.40
2010,08,24,00,08,12.40
2010,08,24,00,09,12.30
2010,08,24,00,10,12.30
2010,08,24,00,11,12.30
2010,08,24,00,12,12.30
2010,08,24,00,13,12.30
2010,08,24,00,14,12.20
2010,08,24,00,15,12.20
2010,08,24,00,16,12.20
2010,08,24,00,17,12.20
2010,08,24,00,18,12.20
2010,08,24,00,19,12.20
2010,08,24,00,20,12.10
2010,08,24,00,21,12.10
2010,08,24,00,22,12.10
2010,08,24,00,23,12.10
2010,08,24,00,24,12.10
2010,08,24,00,25,12.00
2010,08,24,00,26,12.00
2010,08,24,00,27,12.00
2010,08,24,00,28,12.00
2010,08,24,00,29,12.00
2010,08,24,00,30,12.00
2010,08,24,00,31,12.00
2010,08,24,00,32,12.00
2010,08,24,00,33,12.00
2010,08,24,00,34,12.00
2010,08,24,00,35,11.90
2010,08,24,00,36,11.90
2010,08,24,00,37,11.90
2010,08,24,00,38,11.90
2010,08,24,00,39,11.90
2010,08,24,00,40,11.90
2010,08,24,00,41,11.90
2010,08,24,00,42,11.90
2010,08,24,00,43,11.90
2010,08,24,00,44,11.80
2010,08,24,00,45,11.80
2010,08,24,00,46,11.80
2010,08,24,00,47,11.80
2010,08,24,00,48,11.80
2010,08,24,00,49,11.80
2010,08,24,00,50,11.80
2010,08,24,00,51,11.80
2010,08,24,00,52,11.80
2010,08,24,00,53,11.80
2010,08,24,00,54,11.80
2010,08,24,00,55,11.70
2010,08,24,00,56,11.70
2010,08,24,00,57,11.70
2010,08,24,00,58,11.70
2010,08,24,00,59,11.70
2010,08,24,01,00,11.70
2010,08,24,01,01,11.70
2010,08,24,01,02,11.70
2010,08,24,01,03,11.70
2010,08,24,01,04,11.70
2010,08,24,01,05,11.60
2010,08,24,01,06,11.60
2010,08,24,01,07,11.60
2010,08,24,01,08,11.60
2010,08,24,01,09,11.60
2010,08,24,01,10,11.60
2010,08,24,01,11,11.60
2010,08,24,01,12,11.60
2010,08,24,01,13,11.60
2010,08,24,01,14,11.60
2010,08,24,01,15,11.60
2010,08,24,01,16,11.60
2010,08,24,01,17,11.60
2010,08,24,01,18,11.50
2010,08,24,01,19,11.50
2010,08,24,01,20,11.50
2010,08,24,01,21,11.50
2010,08,24,01,22,11.50
2010,08,24,01,23,11.40
2010,08,24,01,24,11.40
2010,08,24,01,25,11.40
2010,08,24,01,26,11.40
2010,08,24,01,27,11.40
2010,08,24,01,28,11.40
2010,08,24,01,29,11.40
2010,08,24,01,30,11.40
2010,08,24,01,31,11.40
2010,08,24,01,32,11.40
2010,08,24,01,33,11.40
2010,08,24,01,34,11.40
2010,08,24,01,35,11.40
2010,08,24,01,36,11.40
2010,08,24,01,37,11.40
2010,08,24,01,38,11.40
2010,08,24,01,39,11.40
2010,08,24,01,40,11.40
2010,08,24,01,41,11.40
2010,08,24,01,42,11.40
2010,08,24,01,43,11.40
2010,08,24,01,44,11.40
2010,08,24,01,45,11.30
2010,08,24,01,46,11.30
2010,08,24,01,47,11.30
2010,08,24,01,48,11.30
2010,08,24,01,49,11.30
2010,08,24,01,50,11.30
2010,08,24,01,51,11.30
2010,08,24,01,52,11.30
2010,08,24,01,53,11.20
2010,08,24,01,54,11.20
2010,08,24,01,55,11.20
2010,08,24,01,56,11.20
2010,08,24,01,57,11.20
2010,08,24,01,58,11.20
2010,08,24,01,59,11.20
2010,08,24,02,00,11.20
2010,08,24,02,01,11.20
2010,08,24,02,02,11.10
2010,08,24,02,03,11.20
2010,08,24,02,04,11.10
2010,08,24,02,05,11.10
2010,08,24,02,06,11.10
2010,08,24,02,07,11.10
2010,08,24,02,08,11.10
2010,08,24,02,09,11.10
2010,08,24,02,10,11.10
2010,08,24,02,11,11.10
2010,08,24,02,12,11.10
2010,08,24,02,13,11.10
2010,08,24,02,14,11.10
2010,08,24,02,15,11.10
2010,08,24,02,16,11.10
2010,08,24,02,17,11.10
2010,08,24,02,18,11.10
2010,08,24,02,19,11.00
2010,08,24,02,20,11.00
2010,08,24,02,21,11.00
2010,08,24,02,22,11.00
2010,08,24,02,23,11.00
2010,08,24,02,24,11.00
2010,08,24,02,25,10.90
2010,08,24,02,26,10.90
2010,08,24,02,27,10.90
2010,08,24,02,28,10.90
2010,08,24,02,29,10.90
2010,08,24,02,30,10.90
2010,08,24,02,31,10.90
2010,08,24,02,32,10.90
2010,08,24,02,33,10.90
2010,08,24,02,34,10.90
2010,08,24,02,35,10.90
2010,08,24,02,36,10.90
2010,08,24,02,37,10.90
2010,08,24,02,38,10.90
2010,08,24,02,39,10.90
2010,08,24,02,40,10.90
2010,08,24,02,41,10.80
2010,08,24,02,42,10.80
2010,08,24,02,43,10.80
2010,08,24,02,44,10.80
2010,08,24,02,45,10.80
2010,08,24,02,46,10.80
2010,08,24,02,47,10.80
2010,08,24,02,48,10.80
2010,08,24,02,49,10.80
2010,08,24,02,50,10.80
2010,08,24,02,51,10.80
2010,08,24,02,52,10.80
2010,08,24,02,53,10.80
2010,08,24,02,54,10.80
2010,08,24,02,55,10.80
2010,08,24,02,56,10.70
2010,08,24,02,57,10.70
2010,08,24,02,58,10.70
2010,08,24,02,59,10.70
2010,08,24,03,00,10.70
2010,08,24,03,01,10.70
2010,08,24,03,02,10.70
2010,08,24,03,03,10.70
2010,08,24,03,04,10.70
2010,08,24,03,05,10.70
2010,08,24,03,06,10.70
2010,08,24,03,07,10.70
2010,08,24,03,08,10.70
2010,08,24,03,09,10.70
2010,08,24,03,10,10.70
2010,08,24,03,11,10.70
2010,08,24,03,12,10.70
2010,08,24,03,13,10.70
2010,08,24,03,14,10.70
2010,08,24,03,15,10.70
2010,08,24,03,16,10.70
2010,08,24,03,17,10.70
2010,08,24,03,18,10.70
2010,08,24,03,19,10.70
2010,08,24,03,20,10.70
2010,08,24,03,21,10.70
2010,08,24,03,22,10.70
2010,08,24,03,23,10.70
2010,08,24,03,24,10.70
2010,08,24,03,25,10.70
2010,08,24,03,26,10.70
2010,08,24,03,27,10.60
2010,08,24,03,28,10.60
2010,08,24,03,29,10.60
2010,08,24,03,30,10.60
2010,08,24,03,31,10.60
2010,08,24,03,32,10.60
2010,08,24,03,33,10.60
2010,08,24,03,34,10.60
2010,08,24,03,35,10.60
2010,08,24,03,36,10.60
2010,08,24,03,37,10.60
2010,08,24,03,38,10.70
2010,08,24,03,39,10.70
2010,08,24,03,40,10.60
2010,08,24,03,41,10.60
2010,08,24,03,42,10.70
2010,08,24,03,43,10.70
2010,08,24,03,44,10.70
2010,08,24,03,45,10.70
2010,08,24,03,46,10.60
2010,08,24,03,47,10.60
2010,08,24,03,48,10.60
2010,08,24,03,49,10.60
2010,08,24,03,50,10.60
2010,08,24,03,51,10.60
2010,08,24,03,52,10.60
2010,08,24,03,53,10.60
2010,08,24,03,54,10.60
2010,08,24,03,55,10.60
2010,08,24,03,56,10.60
2010,08,24,03,57,10.60
2010,08,24,03,58,10.60
2010,08,24,03,59,10.60
2010,08,24,04,00,10.60
2010,08,24,04,01,10.60
2010,08,24,04,02,10.60
2010,08,24,04,03,10.60
2010,08,24,04,04,10.60
2010,08,24,04,05,10.60
2010,08,24,04,06,10.60
2010,08,24,04,07,10.60
2010,08,24,04,08,10.60
2010,08,24,04,09,10.60
2010,08,24,04,10,10.60
2010,08,24,04,11,10.60
2010,08,24,04,12,10.60
2010,08,24,04,13,10.60
2010,08,24,04,14,10.60
2010,08,24,04,15,10.60
2010,08,24,04,16,10.60
2010,08,24,04,17,10.60
2010,08,24,04,18,10.70
2010,08,24,04,19,10.70
2010,08,24,04,20,10.70
2010,08,24,04,21,10.70
2010,08,24,04,22,10.70
2010,08,24,04,23,10.70
2010,08,24,04,24,10.70
2010,08,24,04,25,10.70
2010,08,24,04,26,10.70
2010,08,24,04,27,10.70
2010,08,24,04,28,10.80
2010,08,24,04,29,10.80
2010,08,24,04,30,10.80
2010,08,24,04,31,10.80
2010,08,24,04,32,10.80
2010,08,24,04,33,10.80
2010,08,24,04,34,10.80
2010,08,24,04,35,10.80
2010,08,24,04,36,10.90
2010,08,24,04,37,10.90
2010,08,24,04,38,10.90
2010,08,24,04,39,10.90
2010,08,24,04,40,10.90
2010,08,24,04,41,11.00
2010,08,24,04,42,11.00
2010,08,24,04,43,11.00
2010,08,24,04,44,11.10
2010,08,24,04,45,11.10
2010,08,24,04,46,11.10
2010,08,24,04,47,11.10
2010,08,24,04,48,11.20
2010,08,24,04,49,11.20
2010,08,24,04,50,11.20
2010,08,24,04,51,11.20
2010,08,24,04,52,11.20
2010,08,24,04,53,11.30
2010,08,24,04,54,11.30
2010,08,24,04,55,11.30
2010,08,24,04,56,11.30
2010,08,24,04,57,11.30
2010,08,24,04,58,11.40
2010,08,24,04,59,11.40
2010,08,24,05,00,11.40
2010,08,24,05,01,11.40
2010,08,24,05,02,11.40
2010,08,24,05,03,11.40
2010,08,24,05,04,11.40
2010,08,24,05,05,11.50
2010,08,24,05,06,11.50
2010,08,24,05,07,11.50
2010,08,24,05,08,11.50
2010,08,24,05,09,11.50
2010,08,24,05,10,11.50
2010,08,24,05,11,11.50
2010,08,24,05,12,11.50
2010,08,24,05,13,11.50
2010,08,24,05,14,11.60
2010,08,24,05,15,11.60
2010,08,24,05,16,11.60
2010,08,24,05,17,11.60
2010,08,24,05,18,11.60
2010,08,24,05,19,11.60
2010,08,24,05,20,11.60
2010,08,24,05,21,11.60
2010,08,24,05,22,11.70
2010,08,24,05,23,11.70
2010,08,24,05,24,11.70
2010,08,24,05,25,11.70
2010,08,24,05,26,11.70
2010,08,24,05,27,11.70
2010,08,24,05,28,11.70
2010,08,24,05,29,11.70
2010,08,24,05,30,11.70
2010,08,24,05,31,11.70
2010,08,24,05,32,11.70
2010,08,24,05,33,11.70
2010,08,24,05,34,11.70
2010,08,24,05,35,11.70
2010,08,24,05,36,11.70
2010,08,24,05,37,11.70
2010,08,24,05,38,11.70
2010,08,24,05,39,11.70
2010,08,24,05,40,11.70
2010,08,24,05,41,11.70
2010,08,24,05,42,11.70
2010,08,24,05,43,11.70
2010,08,24,05,44,11.70
2010,08,24,05,45,11.80
2010,08,24,05,46,11.80
2010,08,24,05,47,11.80
2010,08,24,05,48,11.80
2010,08,24,05,49,11.80
2010,08,24,05,50,11.80
2010,08,24,05,51,11.80
2010,08,24,05,52,11.80
2010,08,24,05,53,11.80
2010,08,24,05,54,11.80
2010,08,24,05,55,11.80
2010,08,24,05,56,11.80
2010,08,24,05,57,11.80
2010,08,24,05,58,11.80
2010,08,24,05,59,11.80
2010,08,24,06,00,11.80
2010,08,24,06,01,11.80
2010,08,24,06,02,11.80
2010,08,24,06,03,11.80
2010,08,24,06,04,11.80
2010,08,24,06,05,11.80
2010,08,24,06,06,11.80
2010,08,24,06,07,11.80
2010,08,24,06,08,11.80
2010,08,24,06,09,11.80
2010,08,24,06,10,11.80
2010,08,24,06,11,11.80
2010,08,24,06,12,11.80
2010,08,24,06,13,11.80
2010,08,24,06,14,11.80
2010,08,24,06,15,11.80
2010,08,24,06,16,11.80
2010,08,24,06,17,11.80
2010,08,24,06,18,11.80
2010,08,24,06,19,11.80
2010,08,24,06,20,11.80
2010,08,24,06,21,11.80
2010,08,24,06,22,11.80
2010,08,24,06,23,11.80
2010,08,24,06,24,11.80
2010,08,24,06,25,11.80
2010,08,24,06,26,11.80
2010,08,24,06,27,11.80
2010,08,24,06,28,11.80
2010,08,24,06,29,11.80
2010,08,24,06,30,11.80
2010,08,24,06,31,11.80
2010,08,24,06,32,11.80
2010,08,24,06,33,11.90
2010,08,24,06,34,11.90
2010,08,24,06,35,11.90
2010,08,24,06,36,11.90
2010,08,24,06,37,11.90
2010,08,24,06,38,11.90
2010,08,24,06,39,11.90
2010,08,24,06,40,12.00
2010,08,24,06,41,12.00
2010,08,24,06,42,12.00
2010,08,24,06,43,12.10
2010,08,24,06,44,12.10
2010,08,24,06,45,12.10
2010,08,24,06,46,12.10
2010,08,24,06,47,12.10
2010,08,24,06,48,12.10
2010,08,24,06,49,12.10
2010,08,24,06,50,12.10
2010,08,24,06,51,12.10
2010,08,24,06,52,12.20
2010,08,24,06,53,12.20
2010,08,24,06,54,12.20
2010,08,24,06,55,12.20
2010,08,24,06,56,12.20
2010,08,24,06,57,12.30
2010,08,24,06,58,12.30
2010,08,24,06,59,12.30
2010,08,24,07,00,12.30
2010,08,24,07,01,12.30
2010,08,24,07,02,12.30
2010,08,24,07,03,12.30
2010,08,24,07,04,12.30
2010,08,24,07,05,12.40
2010,08,24,07,06,12.40
2010,08,24,07,07,12.40
2010,08,24,07,08,12.40
2010,08,24,07,09,12.40
2010,08,24,07,10,12.40
2010,08,24,07,11,12.40
2010,08,24,07,12,12.50
2010,08,24,07,13,12.50
2010,08,24,07,14,12.50
2010,08,24,07,15,12.50
2010,08,24,07,16,12.50
2010,08,24,07,17,12.50
2010,08,24,07,18,12.60
2010,08,24,07,19,12.60
2010,08,24,07,20,12.60
2010,08,24,07,21,12.70
2010,08,24,07,22,12.70
2010,08,24,07,23,12.70
2010,08,24,07,24,12.70
2010,08,24,07,25,12.70
2010,08,24,07,26,12.70
2010,08,24,07,27,12.80
2010,08,24,07,28,12.80
2010,08,24,07,29,12.90
2010,08,24,07,30,12.90
2010,08,24,07,31,12.90
2010,08,24,07,32,13.00
2010,08,24,07,33,13.10
2010,08,24,07,34,13.20
2010,08,24,07,35,13.30
2010,08,24,07,36,13.30
2010,08,24,07,37,13.40
2010,08,24,07,38,13.50
2010,08,24,07,39,13.50
2010,08,24,07,40,13.60
2010,08,24,07,41,13.60
2010,08,24,07,42,13.60
2010,08,24,07,43,13.70
2010,08,24,07,44,13.80
2010,08,24,07,45,13.80
2010,08,24,07,46,13.80
2010,08,24,07,47,13.90
2010,08,24,07,48,14.00
2010,08,24,07,49,14.10
2010,08,24,07,50,14.10
2010,08,24,07,51,14.20
2010,08,24,07,52,14.30
2010,08,24,07,53,14.30
2010,08,24,07,54,14.40
2010,08,24,07,55,14.40
2010,08,24,07,56,14.50
2010,08,24,07,57,14.50
2010,08,24,07,58,14.50
2010,08,24,07,59,14.60
2010,08,24,08,00,14.60
2010,08,24,08,01,14.70
2010,08,24,08,02,14.70
2010,08,24,08,03,14.70
2010,08,24,08,04,14.90
2010,08,24,08,05,15.00
2010,08,24,08,06,15.00
2010,08,24,08,07,15.10
2010,08,24,08,08,15.20
2010,08,24,08,09,15.30
2010,08,24,08,10,15.50
2010,08,24,08,11,15.70
2010,08,24,08,12,15.70
2010,08,24,08,13,15.80
2010,08,24,08,14,15.90
2010,08,24,08,15,16.10
2010,08,24,08,16,16.20
2010,08,24,08,17,16.30
2010,08,24,08,18,16.50
2010,08,24,08,19,16.60
2010,08,24,08,20,16.70
2010,08,24,08,21,16.80
2010,08,24,08,22,16.90
2010,08,24,08,23,16.90
2010,08,24,08,24,17.00
2010,08,24,08,25,17.00
2010,08,24,08,26,17.10
2010,08,24,08,27,17.20
2010,08,24,08,28,17.20
2010,08,24,08,29,17.20
2010,08,24,08,30,17.30
2010,08,24,08,31,17.30
2010,08,24,08,32,17.30
2010,08,24,08,33,17.40
2010,08,24,08,34,17.50
2010,08,24,08,35,17.60
2010,08,24,08,36,17.70
2010,08,24,08,37,17.80
2010,08,24,08,38,17.90
2010,08,24,08,39,18.00
2010,08,24,08,40,18.10
2010,08,24,08,41,18.20
2010,08,24,08,42,18.30
2010,08,24,08,43,18.30
2010,08,24,08,44,18.30
2010,08,24,08,45,18.40
2010,08,24,08,46,18.40
2010,08,24,08,47,18.40
2010,08,24,08,48,18.40
2010,08,24,08,49,18.40
2010,08,24,08,50,18.50
2010,08,24,08,51,18.50
2010,08,24,08,52,18.60
2010,08,24,08,53,18.60
2010,08,24,08,54,18.60
2010,08,24,08,55,18.60
2010,08,24,08,56,18.60
2010,08,24,08,57,18.70
2010,08,24,08,58,18.70
2010,08,24,08,59,18.70
2010,08,24,09,00,18.70
2010,08,24,09,01,18.80
2010,08,24,09,02,18.80
2010,08,24,09,03,18.80
2010,08,24,09,04,18.80
2010,08,24,09,05,18.90
2010,08,24,09,06,18.90
2010,08,24,09,07,18.90
2010,08,24,09,08,18.90
2010,08,24,09,09,19.00
2010,08,24,09,10,19.00
2010,08,24,09,11,19.00
2010,08,24,09,12,19.10
2010,08,24,09,13,19.10
2010,08,24,09,14,19.10
2010,08,24,09,15,19.10
2010,08,24,09,16,19.10
2010,08,24,09,17,19.10
2010,08,24,09,18,19.10
2010,08,24,09,19,19.10
2010,08,24,09,20,19.10
2010,08,24,09,21,19.10
2010,08,24,09,22,19.10
2010,08,24,09,23,19.10
2010,08,24,09,24,19.10
2010,08,24,09,25,19.10
2010,08,24,09,26,19.10
2010,08,24,09,27,19.20
2010,08,24,09,28,19.20
2010,08,24,09,29,19.20
2010,08,24,09,30,19.20
2010,08,24,09,31,19.30
2010,08,24,09,32,19.30
2010,08,24,09,33,19.40
2010,08,24,09,34,19.40
2010,08,24,09,35,19.50
2010,08,24,09,36,19.60
2010,08,24,09,37,19.60
2010,08,24,09,38,19.70
2010,08,24,09,39,19.70
2010,08,24,09,40,19.70
2010,08,24,09,41,19.70
2010,08,24,09,42,19.80
2010,08,24,09,43,19.70
2010,08,24,09,44,19.70
2010,08,24,09,45,19.70
2010,08,24,09,46,19.70
2010,08,24,09,47,19.70
2010,08,24,09,48,19.70
2010,08,24,09,49,19.70
2010,08,24,09,50,19.80
2010,08,24,09,51,19.80
2010,08,24,09,52,19.80
2010,08,24,09,53,19.80
2010,08,24,09,54,19.90
2010,08,24,09,55,19.90
2010,08,24,09,56,19.90
2010,08,24,09,57,19.90
2010,08,24,09,58,19.90
2010,08,24,09,59,19.90
2010,08,24,10,00,19.90
2010,08,24,10,01,19.80
2010,08,24,10,02,19.80
2010,08,24,10,03,19.80
2010,08,24,10,04,19.80
2010,08,24,10,05,19.80
2010,08,24,10,06,19.80
2010,08,24,10,07,19.80
2010,08,24,10,08,19.80
2010,08,24,10,09,19.80
2010,08,24,10,10,19.80
2010,08,24,10,11,19.80
2010,08,24,10,12,19.80
2010,08,24,10,13,19.90
2010,08,24,10,14,19.80
2010,08,24,10,15,19.80
2010,08,24,10,16,19.80
2010,08,24,10,17,19.80
2010,08,24,10,18,19.90
2010,08,24,10,19,19.90
2010,08,24,10,20,19.90
2010,08,24,10,21,19.90
2010,08,24,10,22,19.90
2010,08,24,10,23,19.90
2010,08,24,10,24,19.90
2010,08,24,10,25,20.00
2010,08,24,10,26,20.00
2010,08,24,10,27,20.00
2010,08,24,10,28,20.10
2010,08,24,10,29,20.10
2010,08,24,10,30,20.10
2010,08,24,10,31,20.10
2010,08,24,10,32,20.10
2010,08,24,10,33,20.20
2010,08,24,10,34,20.20
2010,08,24,10,35,20.20
2010,08,24,10,36,20.20
2010,08,24,10,37,20.30
2010,08,24,10,38,20.30
2010,08,24,10,39,20.30
2010,08,24,10,40,20.30
2010,08,24,10,41,20.30
2010,08,24,10,42,20.30
2010,08,24,10,43,20.30
2010,08,24,10,44,20.30
2010,08,24,10,45,20.30
2010,08,24,10,46,20.30
2010,08,24,10,47,20.40
2010,08,24,10,48,20.40
2010,08,24,10,49,20.40
2010,08,24,10,50,20.50
2010,08,24,10,51,20.50
2010,08,24,10,52,20.50
2010,08,24,10,53,20.50
2010,08,24,10,54,20.50
2010,08,24,10,55,20.50
2010,08,24,10,56,20.50
2010,08,24,10,57,20.50
2010,08,24,10,58,20.50
2010,08,24,10,59,20.50
2010,08,24,11,00,20.50
2010,08,24,11,01,20.60
2010,08,24,11,02,20.60
2010,08,24,11,03,20.60
2010,08,24,11,04,20.60
2010,08,24,11,05,20.60
2010,08,24,11,06,20.70
2010,08,24,11,07,20.70
2010,08,24,11,08,20.80
2010,08,24,11,09,20.80
2010,08,24,11,10,20.80
2010,08,24,11,11,20.80
2010,08,24,11,12,20.80
2010,08,24,11,13,20.80
2010,08,24,11,14,20.90
2010,08,24,11,15,20.90
2010,08,24,11,16,20.90
2010,08,24,11,17,20.90
2010,08,24,11,18,20.90
2010,08,24,11,19,21.00
2010,08,24,11,20,20.90
2010,08,24,11,21,20.90
2010,08,24,11,22,20.90
2010,08,24,11,23,20.90
2010,08,24,11,24,20.90
2010,08,24,11,25,20.90
2010,08,24,11,26,21.00
2010,08,24,11,27,21.00
2010,08,24,11,28,21.00
2010,08,24,11,29,21.00
2010,08,24,11,30,21.10
2010,08,24,11,31,21.10
2010,08,24,11,32,21.10
2010,08,24,11,33,21.20
2010,08,24,11,34,21.20
2010,08,24,11,35,21.20
2010,08,24,11,36,21.30
2010,08,24,11,37,21.30
2010,08,24,11,38,21.30
2010,08,24,11,39,21.30
2010,08,24,11,40,21.30
2010,08,24,11,41,21.30
2010,08,24,11,42,21.30
2010,08,24,11,43,21.20
2010,08,24,11,44,21.30
2010,08,24,11,45,21.30
2010,08,24,11,46,21.30
2010,08,24,11,47,21.30
2010,08,24,11,48,21.30
2010,08,24,11,49,21.30
2010,08,24,11,50,21.40
2010,08,24,11,51,21.40
2010,08,24,11,52,21.30
2010,08,24,11,53,21.30
2010,08,24,11,54,21.40
2010,08,24,11,55,21.40
2010,08,24,11,56,21.40
2010,08,24,11,57,21.40
2010,08,24,11,58,21.40
2010,08,24,11,59,21.40
2010,08,24,12,00,21.40
2010,08,24,12,01,21.50
2010,08,24,12,02,21.50
2010,08,24,12,03,21.60
2010,08,24,12,04,21.70
2010,08,24,12,05,21.70
2010,08,24,12,06,21.80
2010,08,24,12,07,21.80
2010,08,24,12,08,22.00
2010,08,24,12,09,22.10
2010,08,24,12,10,22.20
2010,08,24,12,11,22.20
2010,08,24,12,12,22.20
2010,08,24,12,13,22.30
2010,08,24,12,14,22.30
2010,08,24,12,15,22.30
2010,08,24,12,16,22.40
2010,08,24,12,17,22.40
2010,08,24,12,18,22.50
2010,08,24,12,19,22.60
2010,08,24,12,20,22.60
2010,08,24,12,21,22.70
2010,08,24,12,22,22.70
2010,08,24,12,23,22.80
2010,08,24,12,24,22.90
2010,08,24,12,25,23.00
2010,08,24,12,26,23.10
2010,08,24,12,27,23.20
2010,08,24,12,28,23.20
2010,08,24,12,29,23.30
2010,08,24,12,30,23.40
2010,08,24,12,31,23.50
2010,08,24,12,32,23.50
2010,08,24,12,33,23.60
2010,08,24,12,34,23.60
2010,08,24,12,35,23.60
2010,08,24,12,36,23.60
2010,08,24,12,37,23.60
2010,08,24,12,38,23.60
2010,08,24,12,39,23.60
2010,08,24,12,40,23.60
2010,08,24,12,41,23.70
2010,08,24,12,42,23.70
2010,08,24,12,43,23.80
2010,08,24,12,44,23.80
2010,08,24,12,45,23.90
2010,08,24,12,46,24.00
2010,08,24,12,47,24.00
2010,08,24,12,48,24.10
2010,08,24,12,49,24.10
2010,08,24,12,50,24.10
2010,08,24,12,51,24.20
2010,08,24,12,52,24.10
2010,08,24,12,53,24.20
2010,08,24,12,54,24.20
2010,08,24,12,55,24.30
2010,08,24,12,56,24.30
2010,08,24,12,57,24.30
2010,08,24,12,58,24.40
2010,08,24,12,59,24.40
2010,08,24,13,00,24.40
2010,08,24,13,01,24.40
2010,08,24,13,02,24.30
2010,08,24,13,03,24.30
2010,08,24,13,04,24.30
2010,08,24,13,05,24.20
2010,08,24,13,06,24.20
2010,08,24,13,07,24.20
2010,08,24,13,08,24.20
2010,08,24,13,09,24.20
2010,08,24,13,10,24.20
2010,08,24,13,11,24.30
2010,08,24,13,12,24.30
2010,08,24,13,13,24.20
2010,08,24,13,14,24.20
2010,08,24,13,15,24.20
2010,08,24,13,16,24.20
2010,08,24,13,17,24.20
2010,08,24,13,18,24.20
2010,08,24,13,19,24.30
2010,08,24,13,20,24.30
2010,08,24,13,21,24.30
2010,08,24,13,22,24.20
2010,08,24,13,23,24.20
2010,08,24,13,24,24.20
2010,08,24,13,25,24.20
2010,08,24,13,26,24.20
2010,08,24,13,27,24.30
2010,08,24,13,28,24.30
2010,08,24,13,29,24.30
2010,08,24,13,30,24.40
2010,08,24,13,31,24.40
2010,08,24,13,32,24.50
2010,08,24,13,33,24.50
2010,08,24,13,34,24.50
2010,08,24,13,35,24.50
2010,08,24,13,36,24.50
2010,08,24,13,37,24.40
2010,08,24,13,38,24.40
2010,08,24,13,39,24.40
2010,08,24,13,40,24.50
2010,08,24,13,41,24.50
2010,08,24,13,42,24.60
2010,08,24,13,43,24.60
2010,08,24,13,44,24.70
2010,08,24,13,45,24.70
2010,08,24,13,46,24.70
2010,08,24,13,47,24.70
2010,08,24,13,48,24.70
2010,08,24,13,49,24.70
2010,08,24,13,50,24.80
2010,08,24,13,51,24.80
2010,08,24,13,52,24.90
2010,08,24,13,53,24.90
2010,08,24,13,54,24.90
2010,08,24,13,55,25.00
2010,08,24,13,56,25.10
2010,08,24,13,57,25.10
2010,08,24,13,58,25.10
2010,08,24,13,59,25.20
2010,08,24,14,00,25.20
2010,08,24,14,01,25.20
2010,08,24,14,02,25.20
2010,08,24,14,03,25.20
2010,08,24,14,04,25.20
2010,08,24,14,05,25.30
2010,08,24,14,06,25.40
2010,08,24,14,07,25.40
2010,08,24,14,08,25.40
2010,08,24,14,09,25.40
2010,08,24,14,10,25.40
2010,08,24,14,11,25.50
2010,08,24,14,12,25.50
2010,08,24,14,13,25.50
2010,08,24,14,14,25.40
2010,08,24,14,15,25.30
2010,08,24,14,16,25.20
2010,08,24,14,17,25.20
2010,08,24,14,18,25.20
2010,08,24,14,19,25.20
2010,08,24,14,20,25.30
2010,08,24,14,21,25.30
2010,08,24,14,22,25.30
2010,08,24,14,23,25.30
2010,08,24,14,24,25.30
2010,08,24,14,25,25.30
2010,08,24,14,26,25.30
2010,08,24,14,27,25.30
2010,08,24,14,28,25.30
2010,08,24,14,29,25.30
2010,08,24,14,30,25.40
2010,08,24,14,31,25.50
2010,08,24,14,32,25.50
2010,08,24,14,33,25.50
2010,08,24,14,34,25.50
2010,08,24,14,35,25.50
2010,08,24,14,36,25.50
2010,08,24,14,37,25.50
2010,08,24,14,38,25.50
2010,08,24,14,39,25.40
2010,08,24,14,40,25.40
2010,08,24,14,41,25.30
2010,08,24,14,42,25.30
2010,08,24,14,43,25.30
2010,08,24,14,44,25.40
2010,08,24,14,45,25.30
2010,08,24,14,46,25.30
2010,08,24,14,47,25.30
2010,08,24,14,48,25.20
2010,08,24,14,49,25.30
2010,08,24,14,50,25.30
2010,08,24,14,51,25.30
2010,08,24,14,52,25.30
2010,08,24,14,53,25.30
2010,08,24,14,54,25.30
2010,08,24,14,55,25.30
2010,08,24,14,56,25.30
2010,08,24,14,57,25.30
2010,08,24,14,58,25.30
2010,08,24,14,59,25.30
2010,08,24,15,00,25.30
2010,08,24,15,01,25.30
2010,08,24,15,02,25.30
2010,08,24,15,03,25.30
2010,08,24,15,04,25.30
2010,08,24,15,05,25.30
2010,08,24,15,06,25.30
2010,08,24,15,07,25.30
2010,08,24,15,08,25.30
2010,08,24,15,09,25.30
2010,08,24,15,10,25.30
2010,08,24,15,11,25.30
2010,08,24,15,12,25.30
2010,08,24,15,13,25.30
2010,08,24,15,14,25.30
2010,08,24,15,15,25.40
2010,08,24,15,16,25.40
2010,08,24,15,17,25.50
2010,08,24,15,18,25.50
2010,08,24,15,19,25.50
2010,08,24,15,20,25.50
2010,08,24,15,21,25.50
2010,08,24,15,22,25.50
2010,08,24,15,23,25.40
2010,08,24,15,24,25.40
2010,08,24,15,25,25.30
2010,08,24,15,26,25.30
2010,08,24,15,27,25.30
2010,08,24,15,28,25.30
2010,08,24,15,29,25.30
2010,08,24,15,30,25.30
2010,08,24,15,31,25.30
2010,08,24,15,32,25.40
2010,08,24,15,33,25.40
2010,08,24,15,34,25.40
2010,08,24,15,35,25.40
2010,08,24,15,36,25.40
2010,08,24,15,37,25.40
2010,08,24,15,38,25.40
2010,08,24,15,39,25.40
2010,08,24,15,40,25.40
2010,08,24,15,41,25.40
2010,08,24,15,42,25.40
2010,08,24,15,43,25.40
2010,08,24,15,44,25.40
2010,08,24,15,45,25.40
2010,08,24,15,46,25.40
2010,08,24,15,47,25.40
2010,08,24,15,48,25.50
2010,08,24,15,49,25.40
2010,08,24,15,50,25.50
2010,08,24,15,51,25.50
2010,08,24,15,52,25.50
2010,08,24,15,53,25.50
2010,08,24,15,54,25.50
2010,08,24,15,55,25.50
2010,08,24,15,56,25.50
2010,08,24,15,57,25.50
2010,08,24,15,58,25.50
2010,08,24,15,59,25.50
2010,08,24,16,00,25.50
2010,08,24,16,01,25.40
2010,08,24,16,02,25.40
2010,08,24,16,03,25.40
2010,08,24,16,04,25.40
2010,08,24,16,05,25.40
2010,08,24,16,06,25.50
2010,08,24,16,07,25.50
2010,08,24,16,08,25.50
2010,08,24,16,09,25.60
2010,08,24,16,10,25.60
2010,08,24,16,11,25.60
2010,08,24,16,12,25.60
2010,08,24,16,13,25.50
2010,08,24,16,14,25.50
2010,08,24,16,15,25.50
2010,08,24,16,16,25.60
2010,08,24,16,17,25.60
2010,08,24,16,18,25.60
2010,08,24,16,19,25.60
2010,08,24,16,20,25.60
2010,08,24,16,21,25.60
2010,08,24,16,22,25.60
2010,08,24,16,23,25.60
2010,08,24,16,24,25.70
2010,08,24,16,25,25.70
2010,08,24,16,26,25.60
2010,08,24,16,27,25.60
2010,08,24,16,28,25.60
2010,08,24,16,29,25.60
2010,08,24,16,30,25.60
2010,08,24,16,31,25.60
2010,08,24,16,32,25.60
2010,08,24,16,33,25.60
2010,08,24,16,34,25.60
2010,08,24,16,35,25.60
2010,08,24,16,36,25.60
2010,08,24,16,37,25.60
2010,08,24,16,38,25.60
2010,08,24,16,39,25.60
2010,08,24,16,40,25.60
2010,08,24,16,41,25.60
2010,08,24,16,42,25.60
2010,08,24,16,43,25.60
2010,08,24,16,44,25.60
2010,08,24,16,45,25.60
2010,08,24,16,46,25.60
2010,08,24,16,47,25.60
2010,08,24,16,48,25.60
2010,08,24,16,49,25.60
2010,08,24,16,50,25.60
2010,08,24,16,51,25.60
2010,08,24,16,52,25.60
2010,08,24,16,53,25.60
2010,08,24,16,54,25.60
2010,08,24,16,55,25.60
2010,08,24,16,56,25.50
2010,08,24,16,57,25.50
2010,08,24,16,58,25.50
2010,08,24,16,59,25.50
2010,08,24,17,00,25.50
2010,08,24,17,01,25.50
2010,08,24,17,02,25.50
2010,08,24,17,03,25.50
2010,08,24,17,04,25.50
2010,08,24,17,05,25.50
2010,08,24,17,06,25.50
2010,08,24,17,07,25.50
2010,08,24,17,08,25.50
2010,08,24,17,09,25.40
2010,08,24,17,10,25.40
2010,08,24,17,11,25.40
2010,08,24,17,12,25.40
2010,08,24,17,13,25.40
2010,08,24,17,14,25.40
2010,08,24,17,15,25.40
2010,08,24,17,16,25.40
2010,08,24,17,17,25.40
2010,08,24,17,18,25.50
2010,08,24,17,19,25.50